Weather History for K5H4 - April, 2013

Change the Weather History Date:

Sunday, April 7, 2013

  Actual Average (KRUG) Record (KRUG)
Temperature  
Mean Temperature 30 °F -  
Max Temperature 32 °F 49 °F 86 °F (1988)
Min Temperature 28 °F 28 °F 8 °F (1974)
Degree Days  
Heating Degree Days 35    
Moisture  
Dew Point 30 °F    
Average Humidity 97    
Maximum Humidity 100    
Minimum Humidity 87    
Precipitation  
Precipitation 0.00 in - - ()
Sea Level Pressure  
Sea Level Pressure 29.79 in    
Wind  
Wind Speed 7 mph (SE)    
Max Wind Speed 17 mph    
Max Gust Speed 20 mph    
Visibility 9 miles    
Events Snow    
Averages and records for this station are not official NWS values.
T = Trace of Precipitation, MM = Missing Value Source: NWS Daily Summary

Daily Weather History Graph

Daily Weather History Graph

Search for Another Location

Airport or City:

Trip Planner

Search our weather history database for the weather conditions in past years. The results will help you decide how hot, cold, wet, or windy it might be!

Date:

Astronomy

Apr. 07, 2013 Rise Set
Actual Time 7:05 AM CDT 8:18 PM CDT
Civil Twilight 6:33 AM CDT 8:50 PM CDT
Nautical Twilight 5:55 AM CDT 9:29 PM CDT
Astronomical Twilight 5:14 AM CDT 10:10 PM CDT
Moon 5:35 AM CDT (4/7) 5:43 PM CDT (4/7)
Length of Visible Light 14h 16m
Length of Day
13h 13m
Waning Crescent, 8% of the Moon is Illuminated
Apr 7
Waning Crescent
Apr 10
New
Apr 18
First Quarter
Apr 25
Full
May 2
Last Quarter

Hourly Weather History & Observations

Time (CDT) Temp. Windchill Dew Point Humidity Pressure Visibility Wind Dir Wind Speed Gust Speed Precip Events Conditions
12:15 AM 30.2 °F 25.4 °F 30.2 °F 100% 29.86 in 10.0 mi East 4.6 mph - N/A   Overcast
12:35 AM 30.2 °F 26.7 °F 28.4 °F 93% 29.86 in 10.0 mi East 3.5 mph - N/A   Overcast
12:55 AM 30.2 °F - 30.2 °F 100% 29.87 in 10.0 mi Calm Calm - N/A   Overcast
1:15 AM 30.2 °F 26.7 °F 30.2 °F 100% 29.86 in 10.0 mi East 3.5 mph - N/A   Overcast
1:35 AM 30.2 °F - 28.4 °F 93% 29.87 in 10.0 mi Calm Calm - N/A   Overcast
1:55 AM 30.2 °F - 28.4 °F 93% 29.86 in 10.0 mi Calm Calm - N/A   Overcast
2:15 AM 30.2 °F - 30.2 °F 100% 29.86 in 10.0 mi Calm Calm - N/A   Overcast
2:35 AM 30.2 °F 25.4 °F 28.4 °F 93% 29.86 in 10.0 mi ESE 4.6 mph - N/A   Overcast
2:55 AM 30.2 °F - 28.4 °F 93% 29.87 in 10.0 mi Calm Calm - N/A   Overcast
3:15 AM 30.2 °F - 28.4 °F 93% 29.87 in 10.0 mi Calm Calm - N/A   Overcast
3:35 AM 30.2 °F 26.7 °F 28.4 °F 93% 29.86 in 10.0 mi SE 3.5 mph - N/A   Overcast
3:55 AM 30.2 °F 26.7 °F 28.4 °F 93% 29.85 in 10.0 mi SE 3.5 mph - N/A   Overcast
4:15 AM 30.2 °F 26.7 °F 28.4 °F 93% 29.85 in 10.0 mi East 3.5 mph - N/A   Overcast
4:35 AM 30.2 °F 24.3 °F 28.4 °F 93% 29.84 in 10.0 mi ESE 5.8 mph - N/A   Overcast
4:55 AM 28.4 °F 20.4 °F 28.4 °F 100% 29.83 in 10.0 mi ESE 8.1 mph - N/A   Overcast
5:15 AM 28.4 °F 21.2 °F 28.4 °F 100% 29.84 in 10.0 mi SE 6.9 mph - N/A   Overcast
5:35 AM 28.4 °F 21.2 °F 28.4 °F 100% 29.83 in 10.0 mi SE 6.9 mph - N/A   Overcast
5:55 AM 28.4 °F 22.2 °F 28.4 °F 100% 29.84 in 10.0 mi SE 5.8 mph - N/A   Overcast
6:15 AM 28.4 °F 20.4 °F 28.4 °F 100% 29.83 in 10.0 mi SE 8.1 mph - N/A   Overcast
6:35 AM 28.4 °F 22.2 °F 28.4 °F 100% 29.83 in 10.0 mi SE 5.8 mph - N/A   Overcast
6:55 AM 28.4 °F 23.3 °F 28.4 °F 100% 29.84 in 10.0 mi SE 4.6 mph - N/A   Overcast
7:15 AM 28.4 °F 22.2 °F 28.4 °F 100% 29.84 in 10.0 mi SSE 5.8 mph - N/A   Overcast
7:35 AM 28.4 °F 22.2 °F 28.4 °F 100% 29.84 in 10.0 mi SSE 5.8 mph - N/A   Overcast
7:55 AM 28.4 °F 23.3 °F 28.4 °F 100% 29.85 in 10.0 mi SSE 4.6 mph - N/A   Overcast
8:15 AM 28.4 °F 22.2 °F 28.4 °F 100% 29.84 in 10.0 mi SE 5.8 mph - N/A   Overcast
8:35 AM 30.2 °F 24.3 °F 28.4 °F 93% 29.84 in 10.0 mi SSE 5.8 mph - N/A   Overcast
8:55 AM 30.2 °F 24.3 °F 28.4 °F 93% 29.83 in 10.0 mi SSE 5.8 mph - N/A   Overcast
9:15 AM 30.2 °F 21.9 °F 28.4 °F 93% 29.83 in 10.0 mi SSE 9.2 mph - N/A   Overcast
9:35 AM 30.2 °F 21.3 °F 28.4 °F 93% 29.81 in 10.0 mi SSE 10.4 mph - N/A   Overcast
9:55 AM 30.2 °F 20.8 °F 28.4 °F 93% 29.80 in 10.0 mi SE 11.5 mph - N/A   Overcast
10:15 AM 32.0 °F 23.6 °F 28.4 °F 87% 29.79 in 10.0 mi SE 10.4 mph - N/A   Overcast
10:35 AM 32.0 °F 23.0 °F 28.4 °F 87% 29.77 in 10.0 mi SSE 11.5 mph - N/A   Mostly Cloudy
10:55 AM 32.0 °F 23.6 °F 28.4 °F 87% 29.77 in 10.0 mi SSE 10.4 mph - N/A   Mostly Cloudy
11:15 AM 32.0 °F 22.5 °F 28.4 °F 87% 29.76 in 8.0 mi SE 12.7 mph - N/A   Mostly Cloudy
11:35 AM 32.0 °F 23.0 °F 28.4 °F 87% 29.76 in 10.0 mi SSE 11.5 mph - N/A   Mostly Cloudy
11:55 AM 32.0 °F 23.6 °F 30.2 °F 93% 29.76 in 10.0 mi SSE 10.4 mph - N/A   Overcast
12:15 PM 32.0 °F 23.6 °F 30.2 °F 93% 29.76 in 10.0 mi SSE 10.4 mph - N/A   Overcast
12:35 PM 32.0 °F 24.8 °F 30.2 °F 93% 29.76 in 10.0 mi SSE 8.1 mph - N/A   Overcast
12:55 PM 32.0 °F 24.2 °F 30.2 °F 93% 29.75 in 6.0 mi SSE 9.2 mph - N/A   Overcast
1:15 PM 32.0 °F 24.2 °F 32.0 °F 100% 29.75 in 5.0 mi SSE 9.2 mph - N/A Snow Light Snow
1:35 PM 32.0 °F 24.8 °F 32.0 °F 100% 29.75 in 5.0 mi SSE 8.1 mph - N/A Snow Light Snow
1:55 PM 32.0 °F 23.6 °F 32.0 °F 100% 29.75 in 4.0 mi South 10.4 mph - N/A Snow Light Snow
2:15 PM 32.0 °F 23.0 °F 32.0 °F 100% 29.75 in 4.0 mi South 11.5 mph - N/A Snow Light Snow
2:35 PM 32.0 °F 23.6 °F 32.0 °F 100% 29.74 in 3.0 mi SSE 10.4 mph - N/A Snow Light Snow
2:55 PM 32.0 °F 23.6 °F 32.0 °F 100% 29.74 in 10.0 mi SSE 10.4 mph - N/A   Overcast
3:15 PM 32.0 °F 24.2 °F 32.0 °F 100% 29.74 in 7.0 mi SSE 9.2 mph - N/A   Overcast
3:35 PM 32.0 °F 24.8 °F 32.0 °F 100% 29.73 in 10.0 mi SE 8.1 mph - N/A   Overcast
3:55 PM 32.0 °F 24.8 °F 32.0 °F 100% 29.73 in 10.0 mi SE 8.1 mph - N/A   Overcast
4:15 PM 32.0 °F 24.2 °F 32.0 °F 100% 29.73 in 10.0 mi SE 9.2 mph - N/A   Overcast
4:35 PM 32.0 °F 24.2 °F 32.0 °F 100% 29.73 in 10.0 mi SE 9.2 mph - N/A   Overcast
4:55 PM 32.0 °F 23.6 °F 32.0 °F 100% 29.73 in 10.0 mi ESE 10.4 mph - N/A   Overcast
5:15 PM 32.0 °F 22.5 °F 32.0 °F 100% 29.73 in 10.0 mi ESE 12.7 mph - N/A   Overcast
5:35 PM 32.0 °F 22.5 °F 32.0 °F 100% 29.73 in 9.0 mi ESE 12.7 mph - N/A   Overcast
5:55 PM 32.0 °F 22.1 °F 32.0 °F 100% 29.73 in 10.0 mi ESE 13.8 mph - N/A   Overcast
6:15 PM 32.0 °F 21.6 °F 32.0 °F 100% 29.73 in 9.0 mi ESE 15.0 mph - N/A   Overcast
6:35 PM 32.0 °F 21.2 °F 32.0 °F 100% 29.73 in 8.0 mi ESE 16.1 mph - N/A   Overcast
6:55 PM 32.0 °F 22.5 °F 32.0 °F 100% 29.73 in 8.0 mi ESE 12.7 mph - N/A   Overcast
7:15 PM 32.0 °F 21.2 °F 32.0 °F 100% 29.73 in 8.0 mi ESE 16.1 mph - N/A   Overcast
7:35 PM 32.0 °F 20.8 °F 32.0 °F 100% 29.73 in 5.0 mi ESE 17.3 mph - N/A   Overcast
7:55 PM 32.0 °F 20.8 °F 32.0 °F 100% 29.73 in 5.0 mi ESE 17.3 mph - N/A   Overcast
8:15 PM 32.0 °F 21.6 °F 32.0 °F 100% 29.73 in 4.0 mi ESE 15.0 mph - N/A   Overcast
8:35 PM 32.0 °F 21.2 °F 32.0 °F 100% 29.72 in 5.0 mi ESE 16.1 mph - N/A   Overcast
8:55 PM 32.0 °F 21.6 °F 32.0 °F 100% 29.73 in 8.0 mi ESE 15.0 mph - N/A   Overcast
9:15 PM 32.0 °F 21.6 °F 32.0 °F 100% 29.73 in 8.0 mi ESE 15.0 mph - N/A   Overcast
9:35 PM 32.0 °F 21.6 °F 32.0 °F 100% 29.74 in 9.0 mi ESE 15.0 mph - N/A   Overcast
9:55 PM 32.0 °F 22.1 °F 32.0 °F 100% 29.75 in 9.0 mi ESE 13.8 mph - N/A   Overcast
10:15 PM 32.0 °F 21.2 °F 32.0 °F 100% 29.74 in 8.0 mi ESE 16.1 mph - N/A   Overcast
10:35 PM 32.0 °F 22.1 °F 32.0 °F 100% 29.75 in 7.0 mi ESE 13.8 mph - N/A   Overcast
10:55 PM 32.0 °F 21.6 °F 32.0 °F 100% 29.75 in 7.0 mi ESE 15.0 mph - N/A   Overcast
11:15 PM 32.0 °F 22.5 °F 32.0 °F 100% 29.75 in 8.0 mi ESE 12.7 mph 19.6 mph N/A   Overcast
11:35 PM 32.0 °F 22.5 °F 32.0 °F 100% 29.76 in 8.0 mi ESE 12.7 mph - N/A   Overcast
11:55 PM 32.0 °F 23.0 °F 32.0 °F 100% 29.77 in 8.0 mi ESE 11.5 mph - N/A   Overcast